Regional Weather Roundup
Issued by NWS Midland/Odessa, TX

Skip options and go directly to product.
Home | Oldest Version | Previous Version | Current Version | All | Text Only | Save Text | Print | Product List | Glossary Off

Skip product version selection by date and time.   

441
ASUS44 KMAF 230510
RWRMAF
MIDLAND AREA WEATHER ROUNDUP
NATIONAL WEATHER SERVICE MIDLAND TX
1200 AM CDT WED JUL 23 2014

...IN SOUTHWEST TEXAS AND SOUTHEAST NEW MEXICO...

CITY           SKY/WX    TMP DP  RH WIND       PRES   REMARKS
ALPINE         PTCLDY    77  58  52 E8        30.32R
ANDREWS        NOT AVBL
ARTESIA        CLOUDY    84  57  39 E3        30.20R
BIG SPRING     PTCLDY    84  61  45 E8        30.18R
CARLSBAD       CLOUDY    88  53  30 E8        30.16R
DRYDEN           N/A     88  63  43 E5        30.10R
FORT STOCKTON  MOCLDY    83  59  44 S7        30.16R
GUAD PASS      CLOUDY    76  54  46 NE12      30.34R
HOBBS          MOCLDY    81  55  41 E8        30.23S
MARFA          PTCLDY    70  57  64 NE5       30.30R
MIDLAND AIRPK  PTCLDY    85  61  43 SE9       30.18R
MIDLAND INTL   PTCLDY    83  63  50 E12       30.17R
ODESSA         PTCLDY    85  60  42 E10       30.18R
PECOS          MOCLDY    88  56  34 SE10      30.11S
PRESIDIO       FAIR      89  59  36 MISG      30.09R
SEMINOLE       PTCLDY    78  60  53 NE7       30.21S
SNYDER         PTCLDY    82  62  50 SE8       30.16S
WINK           MOCLDY    85  55  35 E7        30.13R
$$
...OTHER STATIONS IN TEXAS...

CITY           SKY/WX    TMP DP  RH WIND       PRES   REMARKS
ABILENE        MOCLDY    83  67  58 SE9       30.12R
AMARILLO       PTCLDY    73  63  70 S3        30.25R
AUSTIN         PTCLDY    78  73  84 E3        30.04R
BROWNSVILLE    PTCLDY    81  78  91 SE7       30.01R
CORPUS CHRISTI MOCLDY    81  77  88 SE5       30.01R
DALLAS FTW     CLEAR     84  70  62 E6        30.06S
DEL RIO        PTCLDY    87  63  44 E6        30.03R
EL PASO        CLOUDY    75  67  76 NE7       30.20R
HOUSTON INT    MOCLDY    80  75  84 SE3       30.02F
LUBBOCK        CLOUDY    80  64  58 E5        30.21R
SAN ANGELO     CLEAR     79  66  64 E6        30.11R
SAN ANTONIO    PTCLDY    84  66  54 E7        30.05R
WACO           CLEAR     81  72  74 E5        30.05S
WICHITA FALLS  NOT AVBL
$$
...OTHER LOCATIONS IN NEW MEXICO...

CITY           SKY/WX    TMP DP  RH WIND       PRES   REMARKS
ALAMAGORDO     MOCLDY    75  57  53 SE7       30.25R
ALBUQUERQUE    CLOUDY    75  56  51 SE7       30.36R
CANNON AFB     MOCLDY    74  63  69 E6        30.28S
CLOVIS         NOT AVBL
HOLLOMAN AFB   MOCLDY    81  55  40 S5        30.22R
ROSWELL        CLOUDY    85  57  38 CALM      30.22R
RUIDOSO        CLOUDY    63  55  77 MISG      30.47F
SANTA FE       MOCLDY    68  50  52 CALM      30.44R
TRUTH OR CONSE CLOUDY    78  56  46 W12       30.30S
TUCUMCARI      MOCLDY    76  61  59 S6        30.24S
$$

USA.gov is the U.S. government's official web portal to all federal, state and local government web resources and services.